Weather History for Midlothian, TX

Change the Weather History Date:

Friday, September 27, 2013

  Actual Average (KRBD) Record (KRBD)
Temperature  
Mean Temperature 76 °F -  
Max Temperature 87 °F 83 °F 97 °F (2005)
Min Temperature 67 °F 60 °F 48 °F (2000)
Cooling Degree Days 12    
Growing Degree Days 26 (Base 50)    
Moisture  
Dew Point 64 °F    
Average Humidity 62    
Maximum Humidity 79    
Minimum Humidity 50    
Precipitation  
Precipitation 0.00 in - - ()
Sea Level Pressure  
Sea Level Pressure 29.91 in    
Wind  
Wind Speed 8 mph (SE)    
Max Wind Speed 16 mph    
Max Gust Speed 22 mph    
Visibility 10 miles    
Events      
Averages and records for this station are not official NWS values.
T = Trace of Precipitation, MM = Missing Value Source: NWS Daily Summary

Daily Weather History Graph

Daily Weather History Graph

Search for Another Location

Airport:

Trip Planner

Search our weather history database for the weather conditions in past years. The results will help you decide how hot, cold, wet, or windy it might be!

Date:

Astronomy

Sep. 27, 2013 Rise Set
Actual Time 7:19 AM CDT 7:17 PM CDT
Civil Twilight 6:54 AM CDT 7:41 PM CDT
Nautical Twilight 6:26 AM CDT 8:10 PM CDT
Astronomical Twilight 5:57 AM CDT 8:38 PM CDT
Moon 12:34 AM CDT (9/27) 2:39 PM CDT (9/27)
Length of Visible Light 12h 47m
Length of Day
11h 58m
Last Quarter, 45% of the Moon is Illuminated
Sep 27
Last Quarter
Oct 4
New
Oct 11
First Quarter
Oct 18
Full
Oct 26
Last Quarter

Hourly Weather History & Observations

Time (CDT) Temp. Heat Index Dew Point Humidity Pressure Visibility Wind Dir Wind Speed Gust Speed Precip Events Conditions
12:15 AM 75.2 °F - 55.6 °F 50% 29.91 in 10.0 mi SSE 6.9 mph - N/A   Clear
12:35 AM 74.5 °F - 55.8 °F 52% 29.91 in 10.0 mi SSE 6.9 mph - N/A   Clear
12:55 AM 74.8 °F - 56.3 °F 52% 29.91 in 10.0 mi SSE 6.9 mph - N/A   Clear
1:15 AM 74.5 °F - 56.7 °F 54% 29.91 in 10.0 mi SSE 8.1 mph - N/A   Clear
1:35 AM 73.9 °F - 57.2 °F 56% 29.91 in 10.0 mi SSE 8.1 mph - N/A   Clear
1:55 AM 73.4 °F - 57.4 °F 57% 29.92 in 10.0 mi SSE 8.1 mph - N/A   Clear
2:15 AM 73.4 °F - 57.7 °F 58% 29.92 in 10.0 mi SSE 8.1 mph - N/A   Clear
2:35 AM 73.4 °F - 58.1 °F 59% 29.92 in 10.0 mi SSE 8.1 mph - N/A   Clear
2:55 AM 72.9 °F - 58.1 °F 60% 29.92 in 10.0 mi SSE 6.9 mph - N/A   Clear
3:15 AM 72.5 °F - 58.5 °F 61% 29.92 in 10.0 mi SSE 5.8 mph - N/A   Clear
3:35 AM 71.8 °F - 58.6 °F 63% 29.92 in 10.0 mi South 4.6 mph - N/A   Clear
3:55 AM 71.6 °F - 59.0 °F 64% 29.92 in 10.0 mi SSE 3.5 mph - N/A   Scattered Clouds
4:15 AM 70.7 °F - 59.0 °F 66% 29.92 in 10.0 mi Calm Calm - N/A   Mostly Cloudy
4:35 AM 70.5 °F - 59.0 °F 67% 29.92 in 10.0 mi SSE 3.5 mph - N/A   Scattered Clouds
4:55 AM 69.1 °F - 59.2 °F 71% 29.92 in 10.0 mi SE 3.5 mph - N/A   Scattered Clouds
5:15 AM 69.3 °F - 59.2 °F 70% 29.92 in 10.0 mi SE 3.5 mph - N/A   Scattered Clouds
5:35 AM 69.1 °F - 59.4 °F 71% 29.92 in 10.0 mi SE 3.5 mph - N/A   Scattered Clouds
5:55 AM 68.9 °F - 59.7 °F 72% 29.92 in 10.0 mi ESE 3.5 mph - N/A   Mostly Cloudy
6:15 AM 68.9 °F - 59.9 °F 73% 29.93 in 10.0 mi SE 3.5 mph - N/A   Overcast
6:55 AM 68.5 °F - 60.6 °F 76% 29.94 in 10.0 mi ESE 3.5 mph - N/A   Mostly Cloudy
7:15 AM 68.0 °F - 60.8 °F 78% 29.94 in 10.0 mi East 4.6 mph - N/A   Scattered Clouds
7:35 AM 67.1 °F - 60.4 °F 79% 29.95 in 10.0 mi Calm Calm - N/A   Scattered Clouds
7:55 AM 67.3 °F - 60.6 °F 79% 29.95 in 10.0 mi Calm Calm - N/A   Scattered Clouds
8:15 AM 69.6 °F - 61.3 °F 75% 29.95 in 10.0 mi ESE 3.5 mph - N/A   Scattered Clouds
8:35 AM 71.1 °F - 61.9 °F 73% 29.95 in 10.0 mi ESE 4.6 mph - N/A   Scattered Clouds
8:55 AM 72.1 °F - 62.6 °F 72% 29.96 in 10.0 mi SE 5.8 mph - N/A   Scattered Clouds
9:15 AM 73.8 °F - 63.3 °F 70% 29.96 in 10.0 mi SE 6.9 mph - N/A   Scattered Clouds
9:35 AM 75.0 °F - 65.5 °F 72% 29.97 in 10.0 mi SSE 8.1 mph - N/A   Mostly Cloudy
9:55 AM 75.4 °F - 66.4 °F 73% 29.97 in 10.0 mi SSE 10.4 mph - N/A   Overcast
10:15 AM 76.5 °F - 67.1 °F 73% 29.97 in 10.0 mi SE 10.4 mph - N/A   Mostly Cloudy
10:35 AM 78.3 °F - 68.4 °F 71% 29.97 in 10.0 mi South 11.5 mph - N/A   Scattered Clouds
10:55 AM 80.4 °F 83.4 °F 68.9 °F 68% 29.97 in 10.0 mi SSE 10.4 mph 17.3 mph N/A   Scattered Clouds
11:15 AM 81.7 °F 84.5 °F 68.2 °F 63% 29.96 in 10.0 mi SE 10.4 mph - N/A   Mostly Cloudy
11:35 AM 82.0 °F 85.1 °F 68.2 °F 63% 29.95 in 10.0 mi SSE 12.7 mph - N/A   Overcast
11:55 AM 82.9 °F 86.0 °F 68.2 °F 61% 29.95 in 10.0 mi SSE 12.7 mph - N/A   Mostly Cloudy
12:15 PM 83.3 °F 86.6 °F 68.7 °F 61% 29.95 in 10.0 mi SSE 13.8 mph 17.3 mph N/A   Mostly Cloudy
12:35 PM 84.7 °F 88.2 °F 68.4 °F 58% 29.95 in 10.0 mi SSE 10.4 mph 18.4 mph N/A   Mostly Cloudy
12:55 PM 85.6 °F 88.8 °F 67.6 °F 55% 29.94 in 10.0 mi SE 15.0 mph - N/A   Mostly Cloudy
1:15 PM 85.1 °F 88.2 °F 67.8 °F 56% 29.94 in 10.0 mi SSE 12.7 mph 20.7 mph N/A   Mostly Cloudy
1:35 PM 82.6 °F 85.5 °F 68.0 °F 61% 29.94 in 10.0 mi South 12.7 mph - N/A   Overcast
1:55 PM 84.6 °F 88.2 °F 68.7 °F 59% 29.92 in 10.0 mi South 12.7 mph - N/A   Overcast
2:15 PM 85.5 °F 88.5 °F 67.6 °F 55% 29.92 in 10.0 mi SSE 11.5 mph 21.9 mph N/A   Overcast
2:35 PM 86.0 °F 88.8 °F 67.1 °F 53% 29.91 in 10.0 mi SSE 13.8 mph 17.3 mph N/A   Overcast
2:55 PM 86.0 °F 89.1 °F 67.5 °F 54% 29.90 in 10.0 mi SSE 11.5 mph 19.6 mph N/A   Overcast
3:15 PM 86.2 °F 89.4 °F 67.6 °F 54% 29.89 in 10.0 mi SSE 11.5 mph 19.6 mph N/A   Overcast
3:35 PM 86.0 °F 89.1 °F 67.5 °F 54% 29.89 in 10.0 mi SSE 16.1 mph - N/A   Overcast
3:55 PM 86.2 °F 88.8 °F 66.7 °F 52% 29.89 in 10.0 mi South 11.5 mph 19.6 mph N/A   Overcast
4:15 PM 86.0 °F 89.1 °F 67.5 °F 54% 29.88 in 10.0 mi SSE 9.2 mph - N/A   Overcast
4:35 PM 86.2 °F 88.8 °F 66.9 °F 52% 29.88 in 10.0 mi SSE 11.5 mph - N/A   Overcast
4:55 PM 86.9 °F 89.9 °F 67.3 °F 52% 29.88 in 10.0 mi SE 6.9 mph - N/A   Overcast
5:15 PM 86.4 °F 89.4 °F 67.3 °F 53% 29.88 in 10.0 mi SSE 11.5 mph - N/A   Overcast
5:35 PM 86.4 °F 89.4 °F 67.6 °F 53% 29.87 in 10.0 mi ESE 8.1 mph - N/A   Overcast
5:55 PM 86.5 °F 89.3 °F 67.1 °F 52% 29.87 in 10.0 mi ESE 10.4 mph 17.3 mph N/A   Scattered Clouds
6:15 PM 85.5 °F 88.5 °F 67.8 °F 55% 29.87 in 10.0 mi SE 11.5 mph 19.6 mph N/A   Mostly Cloudy
6:35 PM 85.5 °F 88.5 °F 67.5 °F 55% 29.87 in 10.0 mi SE 9.2 mph - N/A   Mostly Cloudy
6:55 PM 84.2 °F 87.1 °F 67.6 °F 57% 29.87 in 10.0 mi SE 8.1 mph - N/A   Scattered Clouds
7:15 PM 83.3 °F 86.4 °F 68.0 °F 60% 29.87 in 10.0 mi ESE 8.1 mph - N/A   Clear
7:35 PM 82.8 °F 85.5 °F 67.8 °F 60% 29.87 in 10.0 mi SE 9.2 mph - N/A   Clear
7:55 PM 82.4 °F 85.2 °F 67.8 °F 61% 29.87 in 10.0 mi SE 6.9 mph - N/A   Scattered Clouds
8:15 PM 82.2 °F 85.1 °F 67.8 °F 62% 29.87 in 10.0 mi SE 10.4 mph - N/A   Mostly Cloudy
8:35 PM 81.9 °F 84.6 °F 67.6 °F 62% 29.88 in 10.0 mi SE 10.4 mph 16.1 mph N/A   Scattered Clouds
8:55 PM 81.5 °F 84.2 °F 67.6 °F 63% 29.88 in 10.0 mi SE 9.2 mph - N/A   Clear
9:15 PM 81.0 °F 83.4 °F 67.5 °F 63% 29.87 in 10.0 mi SE 9.2 mph 16.1 mph N/A   Clear
9:35 PM 81.0 °F 83.4 °F 67.1 °F 63% 29.87 in 10.0 mi SE 11.5 mph 19.6 mph N/A   Clear
9:55 PM 80.6 °F 82.9 °F 67.1 °F 63% 29.88 in 10.0 mi SE 12.7 mph 20.7 mph N/A   Clear
10:15 PM 80.4 °F 82.8 °F 67.1 °F 64% 29.88 in 10.0 mi SE 8.1 mph 16.1 mph N/A   Clear
10:35 PM 80.1 °F 82.3 °F 67.1 °F 64% 29.89 in 10.0 mi SE 9.2 mph 18.4 mph N/A   Clear
10:55 PM 79.5 °F - 67.1 °F 66% 29.90 in 10.0 mi SSE 9.2 mph - N/A   Clear
11:15 PM 79.0 °F - 67.1 °F 67% 29.90 in 10.0 mi SE 10.4 mph - N/A   Clear
11:35 PM 78.8 °F - 67.3 °F 68% 29.91 in 10.0 mi SE 8.1 mph - N/A   Clear
11:55 PM 78.1 °F - 67.5 °F 70% 29.91 in 10.0 mi SE 8.1 mph - N/A   Clear